This is the latest recevied weather packets stored in our database for station/object OE3XOC-11. If no packets are shown the sender has not sent any weather packets the latest 10 day(s).
| Time | Temp. | Humidity | Pressure | Rain* | Wind** | Luminosity | Snow |
|---|---|---|---|---|---|---|---|
| 1777469548 | 16.67° C | 21% | 967.2 hPa | - | - | - | - |
| 1777469248 | 16.11° C | 21% | 967.4 hPa | - | - | - | - |
| 1777468948 | 16.67° C | 21% | 967.3 hPa | - | - | - | - |
| 1777468648 | 16.67° C | 22% | 967.3 hPa | - | - | - | - |
| 1777468348 | 15.56° C | 21% | 967.4 hPa | - | - | - | - |
| 1777468048 | 15.56° C | 22% | 967.2 hPa | - | - | - | - |
| 1777467748 | 16.67° C | 22% | 967.2 hPa | - | - | - | - |
| 1777467448 | 15.56° C | 22% | 967.3 hPa | - | - | - | - |
| 1777467148 | 16.67° C | 21% | 967.3 hPa | - | - | - | - |
| 1777466640 | 16.11° C | 21% | 967.3 hPa | - | - | - | - |
| 1777466340 | 16.67° C | 22% | 967.4 hPa | - | - | - | - |
| 1777466041 | 16.11° C | 22% | 967.4 hPa | - | - | - | - |
| 1777465740 | 16.11° C | 22% | 967.4 hPa | - | - | - | - |
| 1777465441 | 16.67° C | 22% | 967.3 hPa | - | - | - | - |
| 1777465140 | 15.56° C | 22% | 967.3 hPa | - | - | - | - |
| 1777464840 | 16.67° C | 21% | 967.3 hPa | - | - | - | - |
| 1777464540 | 16.11° C | 22% | 967.3 hPa | - | - | - | - |
| 1777464240 | 16.11° C | 21% | 967.3 hPa | - | - | - | - |
| 1777463941 | 15° C | 22% | 967.4 hPa | - | - | - | - |
| 1777463640 | 16.11° C | 22% | 967.4 hPa | - | - | - | - |
| 1777463340 | 16.11° C | 22% | 967.4 hPa | - | - | - | - |
| 1777463040 | 16.11° C | 22% | 967.4 hPa | - | - | - | - |
| 1777462740 | 16.11° C | 21% | 967.5 hPa | - | - | - | - |
| 1777462440 | 16.11° C | 23% | 967.5 hPa | - | - | - | - |
| 1777462140 | 15.56° C | 23% | 967.5 hPa | - | - | - | - |
* Rain since midnight (hover to see other rain measurements)
** Current wind speed in m/s (hover to see current wind gust speed)